|
NORAD ID: 32268 Int'l Code: 2007-049A
Perigee: 1,933.0 km
Apogee: 38,478.3 km
Inclination: 65.4 °
Period: 718.6 minutes
Semi major axis: 26576 km
Launch date: October 23, 2007
Source: Commonwealth of Independent States (former USSR) (CIS)
Two Line Element Set (TLE):
1 32268U 07049A 13145.49405836 .00000458 00000-0 10000-3 0 233
2 32268 065.3551 152.6047 6875451 262.7923 324.1910 02.00379386 40956
Source:
NASA's NSSDC Master Catalog entry for COSMOS 2430
|